Location: Leuk
(46.3174°N, 7.6341°E)
Time: 13:20:03
(UTC+00:00)

Cosmos 1980 - Pass Details

Date: 09 March 2021
Orbit: 839 x 848 km, 71.0° (Epoch: 14 April)

Event Time Altitude Azimuth Distance (km) Brightness Sun altitude
Rises 04:44:54 0° 333° (NNW) 3,409 6.6 -12.7°
Reaches altitude 10° 04:47:21 10° 333° (NNW) 2,472 5.9 -12.3°
Maximum altitude 04:53:02 90° 66° (ENE) 851 3.7 -11.3°
Drops below altitude 10° 04:58:42 10° 155° (SSE) 2,461 6.4 -10.3°
Sets 05:01:08 0° 156° (SSE) 3,393 7.1 -9.9°
